Temp
19 20 21 21 21 21 21 21 22 23 23 23 24 23 22 23 23 22 30 32 31 30 28 32 33 34 35 37 38 39 38 39 39 38 39 41 40 41 42 41 41 40 39 38 34
20 21 21 22 21 21 22 22 23 24 24 24 24 23 23 23 21 30 31 30 30 30 30 34 35 36 37 38 39 38 39 39 40 39 39 40 40 40 40 40 41 40 38 36 34
21 21 22 22 22 23 24 24 24 24 25 24 24 24 23 22 29 35 30 30 30 30 33 35 36 37 37 39 39 39 38 40 39 40 39 39 39 41 40 39 40 39 39 36 35
21 21 22 22 22 24 24 24 24 25 25 25 24 24 23 20 35 32 30 29 29 29 33 35 37 37 38 38 40 37 40 39 39 39 39 39 40 39 40 39 40 41 40 37 35
21 22 22 22 23 24 24 25 25 25 26 25 25 24 22 31 35 29 30 29 29 29 35 36 37 37 37 39 39 38 39 39 40 39 39 39 39 39 39 40 41 40 39 38 36
21 22 22 22 23 25 25 25 25 26 26 25 25 24 24 35 33 30 29 28 31 33 35 37 37 38 38 38 38 39 38 39 39 39 39 39 39 40 39 40 40 39 39 39 37
21 22 22 22 23 25 25 25 25 25 25 24 24 23 33 34 33 32 32 32 34 35 37 36 37 37 38 38 39 38 37 39 39 39 39 40 39 38 39 40 39 39 38 37 37
21 22 23 23 23 25 25 24 25 25 24 24 24 23 35 33 34 33 34 34 34 35 36 36 36 37 38 39 38 38 39 39 39 39 39 39 38 38 39 39 37 37 37 36 36
21 22 23 23 24 25 25 24 24 24 24 24 23 28 35 32 34 34 34 36 35 35 35 35 36 37 38 37 39 39 39 39 38 39 39 39 38 38 39 38 37 36 36 36 35
22 23 23 24 25 25 25 24 24 24 24 23 27 33 35 36 35 35 35 36 37 37 36 36 37 37 38 39 38 38 39 39 38 39 39 38 38 38 39 38 37 36 35 35 34
22 23 24 24 25 26 25 24 29 30 31 36 37 36 37 36 35 36 35 36 37 37 36 37 37 38 39 38 38 38 38 38 38 38 38 38 37 37 38 38 37 36 35 34 34
21 23 24 25 25 26 26 33 30 29 34 36 35 35 35 36 36 37 36 36 36 36 37 37 37 38 37 37 37 37 37 38 38 38 37 38 37 38 37 37 37 37 36 35 34
21 22 24 25 26 27 30 29 28 29 32 36 37 37 36 37 37 37 37 37 37 37 37 38 38 37 37 37 37 38 37 37 37 38 38 38 37 37 37 37 37 37 36 35 34
21 22 23 25 26 30 31 29 29 29 34 35 36 37 36 38 37 39 38 38 37 37 37 38 37 37 37 37 37 38 37 37 37 37 37 38 36 36 37 37 36 36 36 35 34
21 21 23 22 23 32 29 29 29 30 34 37 37 37 38 37 38 37 38 38 37 37 37 37 37 36 36 37 36 36 37 36 36 36 37 38 37 37 37 36 36 36 35 34 34
21 21 23 24 24 29 29 29 30 33 34 36 37 36 37 37 38 38 37 38 38 37 37 37 37 37 37 36 36 36 36 37 37 37 36 38 37 37 37 36 36 36 35 34 33
21 22 21 21 31 28 28 32 33 35 37 36 36 38 37 37 37 37 36 36 36 35 35 36 36 37 36 36 37 36 36 36 36 37 37 36 35 37 37 36 36 34 34 34 34
22 23 24 24 26 28 30 33 32 37 37 37 37 38 37 38 37 37 37 36 37 36 37 36 35 36 36 35 35 35 35 34 33 35 36 36 34 35 36 36 35 35 34 34 33
22 26 27 28 27 27 32 33 35 36 36 35 37 36 37 37 36 36 36 37 38 37 35 36 35 36 35 35 35 35 34 36 34 35 35 36 36 36 36 35 35 34 34 33 32
16 26 30 28 28 29 32 31 35 35 34 35 35 36 36 36 36 36 36 37 36 36 36 36 34 36 35 35 35 34 35 34 35 32 32 35 35 35 34 34 34 33 33 33 32
18 30 29 29 29 31 32 35 35 34 34 34 35 35 35 36 36 37 36 36 35 35 36 36 34 35 34 34 34 34 34 33 35 34 32 32 34 35 34 34 32 32 32 32 31
25 30 29 29 30 33 33 34 21 33 34 34 34 35 35 35 35 35 35 35 35 35 34 35 34 34 35 35 35 34 33 34 33 32 34 33 33 35 34 34 33 33 31 31 30
25 29 30 29 31 33 33 32 32 33 33 33 33 34 35 34 33 34 34 33 34 34 33 34 33 32 33 35 34 32 33 33 33 32 30 30 32 36 35 34 33 32 30 29 28
24 29 31 31 32 30 32 31 32 32 32 32 33 33 33 33 34 33 33 33 33 33 25 29 32 31 32 33 33 32 32 33 33 31 32 32 32 33 33 32 32 30 29 28 27
26 28 26 30 30 30 30 31 31 31 31 32 32 32 33 32 33 32 33 33 32 25 30 31 30 31 32 32 33 32 32 32 32 32 31 32 32 32 32 31 30 30 28 27 27
23 24 26 27 27 27 23 29 30 31 31 31 30 33 32 31 32 32 33 33 32 32 30 32 29 29 29 31 31 31 32 32 32 32 32 32 31 33 31 30 30 29 28 27 26
20 22 23 25 27 28 29 29 29 30 30 31 30 30 30 31 32 32 33 33 32 31 30 30 29 28 28 31 31 29 31 32 32 32 32 30 31 30 29 28 28 27 27 26 26
Height
797 792 788 783 778 774 770 768 765 764 763 762 761 761 760 760 760 760 755 751 751 752 754 754 753 749 746 739 734 728 744 741 737 745 736 715 725 710 706 708 708 712 717 721 737
796 791 786 781 775 771 768 765 763 762 760 760 760 759 759 759 759 754 749 749 750 751 753 751 748 745 741 735 730 736 737 736 724 727 733 724 724 719 721 717 713 714 721 726 739
796 790 785 779 773 770 766 764 761 759 758 757 758 758 758 757 753 737 745 747 749 750 749 748 744 743 741 731 728 727 742 726 725 723 725 726 725 713 720 729 719 724 719 730 738
795 789 784 778 771 768 765 760 757 754 753 753 755 757 757 759 752 742 744 746 748 751 749 746 743 746 742 739 724 745 725 728 725 723 726 728 718 724 721 723 714 711 714 725 736
794 789 783 777 770 767 762 758 755 753 751 751 752 755 757 749 739 742 742 745 749 751 746 743 743 742 744 731 730 739 731 726 722 722 722 721 725 725 726 717 711 712 715 721 731
793 788 782 776 770 766 761 758 756 753 751 751 752 754 755 743 743 744 745 748 749 748 744 741 738 733 737 735 738 727 732 730 724 725 725 727 725 721 725 715 714 715 716 718 726
792 787 782 776 770 765 761 759 757 755 753 753 753 753 745 743 743 746 747 747 746 744 740 741 738 737 729 736 724 730 741 725 725 723 724 719 733 738 723 716 720 719 721 722 724
792 787 781 775 769 764 761 759 757 756 755 754 754 756 741 744 744 746 744 744 745 744 741 739 739 734 734 725 730 736 727 741 727 724 723 725 748 732 718 720 728 728 726 727 730
792 786 780 773 767 763 760 758 757 756 756 755 755 751 742 744 743 742 743 740 742 742 742 742 739 736 731 742 737 731 738 739 737 726 727 729 737 731 718 725 733 733 732 730 733
791 785 779 772 766 763 760 758 756 756 755 756 753 749 738 737 737 738 741 739 738 738 741 742 738 741 736 735 755 742 742 736 746 730 729 734 736 731 725 725 734 737 737 738 739
790 784 778 771 766 763 759 757 757 754 749 736 729 734 730 733 739 738 739 739 736 738 747 738 747 745 730 732 736 739 745 746 735 730 739 734 741 737 731 727 734 738 739 742 743
791 784 777 771 766 763 758 750 757 759 746 732 734 734 734 733 736 733 737 740 742 747 737 745 747 730 734 736 741 741 746 741 734 732 739 733 741 732 733 735 734 736 740 741 742
790 783 777 771 766 762 759 761 760 758 751 732 727 727 731 733 730 733 732 731 738 742 740 742 736 734 739 740 746 737 744 744 749 734 727 733 740 736 735 732 732 733 734 740 746
789 783 778 770 768 761 757 760 759 758 751 741 733 727 728 725 734 720 725 728 734 739 738 735 731 741 741 745 741 745 736 744 746 749 756 729 763 739 732 736 736 735 736 740 745
788 783 777 772 768 757 763 760 758 756 770 727 727 721 719 729 721 731 724 727 738 738 741 741 743 746 750 743 742 747 737 743 743 748 744 736 748 741 730 741 739 737 741 742 744
786 781 775 772 768 763 761 759 757 765 767 738 722 730 732 727 725 724 730 726 722 736 734 735 728 737 737 739 741 738 742 736 731 736 756 731 740 739 731 734 734 736 741 744 744
782 778 774 772 760 762 760 754 762 761 722 735 734 723 726 731 730 731 738 744 747 762 754 742 742 734 738 748 736 741 744 760 757 750 747 732 753 741 728 729 733 741 742 742 742
778 774 770 768 765 763 759 755 775 731 730 721 724 722 733 723 728 731 734 742 729 737 743 752 764 743 738 746 753 751 758 771 790 769 749 736 759 746 723 726 734 737 739 739 741
776 768 765 763 764 762 756 762 748 728 726 734 728 737 734 728 734 734 737 734 724 731 755 748 752 736 738 741 748 753 764 739 765 748 759 738 729 724 726 733 736 738 738 740 744
779 767 757 760 761 759 757 759 736 730 734 734 745 728 738 732 740 735 734 725 735 734 730 740 765 735 741 743 742 751 742 766 751 784 783 747 745 744 739 737 738 744 743 740 742
778 757 754 758 759 752 755 736 731 730 735 740 737 734 735 729 732 729 730 730 732 735 732 733 750 748 745 752 753 752 754 754 748 759 776 777 752 727 737 736 744 744 742 743 744
773 760 754 756 758 738 741 732 756 736 733 735 734 730 732 731 739 737 737 733 731 733 747 735 745 757 747 734 736 744 754 747 767 773 753 761 761 724 731 734 737 737 741 744 748
774 758 752 753 755 738 731 741 740 738 736 734 737 730 727 737 752 738 735 735 737 741 749 741 756 767 757 740 734 757 748 748 752 756 774 781 761 716 723 728 729 738 742 747 752
780 758 744 746 739 746 739 743 744 739 738 738 735 731 737 743 735 745 744 740 743 741 758 755 759 767 770 753 746 756 751 745 751 767 760 753 747 735 731 735 734 741 746 751 752
774 760 762 747 745 746 744 742 743 743 741 737 741 740 740 751 744 748 739 738 746 760 756 755 771 761 754 750 748 749 750 748 753 748 760 750 749 738 734 736 739 738 744 749 749
783 776 764 760 758 759 763 751 749 739 742 744 748 734 735 747 742 746 739 740 746 744 756 748 770 767 769 754 752 756 746 743 743 742 743 742 744 726 732 734 738 739 744 746 748
793 787 783 765 757 758 748 745 748 741 742 740 741 743 748 742 732 732 732 732 738 749 753 758 764 772 774 752 750 763 745 738 736 733 736 749 737 734 744 746 745 745 744 746 746
Wind_Speed
26 26 26 27 25 18 14 13 13 11 10 8 7 6 6 5 6 6 11 4 9 10 11 10 10 10 10 13 8 11 8 8 2 1 8 7 9 7 8 7 8 5 12 14 26
27 27 28 31 26 16 13 11 12 10 9 7 5 5 5 4 8 15 9 9 10 16 12 13 10 8 11 9 5 10 11 8 10 8 8 10 9 12 6 10 7 9 7 23 26
28 29 30 34 26 16 13 14 14 14 12 9 6 5 4 2 9 4 8 12 12 19 13 13 7 9 12 9 9 10 9 10 6 8 8 10 11 9 9 5 14 9 9 18 21
29 30 32 35 27 17 18 18 15 13 12 12 11 7 5 5 1 6 4 10 14 18 14 13 11 12 12 8 4 8 10 4 7 8 10 11 10 7 4 10 7 6 1 16 17
31 31 33 35 28 19 21 12 11 8 5 3 7 10 4 9 6 3 6 15 17 15 16 13 11 12 12 6 4 11 8 6 8 8 6 4 2 5 10 7 8 8 2 15 16
31 32 34 35 30 19 19 11 10 8 4 4 9 12 6 7 6 8 13 17 15 15 15 12 9 8 12 7 8 11 8 9 4 4 1 7 7 2 8 7 9 8 4 9 15
32 33 34 35 32 18 18 9 8 6 5 7 9 4 10 8 8 11 14 13 11 11 9 11 11 9 3 10 3 9 12 8 5 2 4 7 8 9 4 4 9 8 8 4 6
32 33 34 35 32 17 17 6 5 4 4 4 2 6 4 6 8 11 8 7 9 8 10 6 9 12 8 6 11 12 12 11 9 5 5 11 11 8 5 9 9 9 8 7 4
33 33 34 35 30 15 17 3 2 1 1 2 4 9 7 7 10 12 10 9 8 7 7 3 10 14 6 12 12 8 8 1 8 1 4 6 7 10 6 10 10 11 10 8 9
33 34 34 35 26 14 14 3 4 3 4 6 11 8 11 11 9 10 11 5 7 7 8 10 8 10 12 12 7 5 5 7 4 6 5 6 5 7 5 9 10 11 12 12 11
33 34 34 34 20 15 10 4 5 6 12 9 6 3 11 10 8 10 12 10 8 7 12 11 11 13 3 8 7 5 6 7 2 2 9 3 2 3 2 5 8 9 10 12 12
32 33 33 34 15 9 11 5 7 6 7 5 4 5 4 4 9 11 14 11 8 13 4 7 13 10 3 5 6 7 9 7 3 2 8 9 9 8 3 4 5 7 10 10 10
32 33 32 31 8 6 6 7 7 6 7 8 6 9 12 11 9 13 15 13 10 7 10 14 14 3 7 6 9 9 8 8 10 6 14 11 15 14 8 7 7 8 7 11 10
32 32 31 30 6 9 0 9 9 3 6 11 10 7 8 10 7 15 16 5 5 6 3 9 8 4 6 2 8 7 5 6 11 12 12 6 8 15 15 10 5 6 6 11 8
31 31 29 18 12 6 8 11 6 5 5 13 11 12 14 12 14 11 11 8 12 6 9 4 8 7 8 4 6 11 10 11 12 14 15 16 8 13 10 9 8 7 6 8 9
29 29 27 5 7 7 11 10 6 7 3 8 8 12 14 13 10 11 10 10 6 6 8 3 1 5 5 1 6 8 12 15 16 13 13 17 3 8 9 7 11 9 6 6 6
29 26 19 9 7 11 12 7 7 8 4 9 12 12 17 11 12 11 15 14 11 9 14 9 11 5 7 10 10 11 13 10 7 11 1 9 4 6 9 5 6 6 3 5 5
29 20 9 10 10 10 12 8 9 5 2 3 2 9 12 9 10 11 13 14 11 9 11 8 12 11 5 5 9 10 8 8 10 10 10 11 6 4 9 7 4 3 6 8 8
27 11 8 6 6 8 8 9 11 3 5 5 8 12 14 5 9 11 14 14 7 8 11 8 8 8 3 2 4 2 9 9 11 17 10 12 7 10 10 5 5 4 9 6 7
18 13 11 4 5 10 8 14 7 5 6 7 13 11 13 13 12 11 12 5 4 6 7 5 9 13 10 6 10 10 10 10 10 5 10 7 5 5 12 6 5 8 11 11 9
8 5 8 3 6 7 10 5 3 4 7 9 11 10 12 8 7 13 7 8 3 6 9 12 7 6 7 13 13 8 10 6 7 7 9 10 1 5 1 5 6 9 11 13 12
8 5 5 4 8 7 9 4 3 9 8 10 8 11 8 8 9 13 6 3 4 10 9 1 6 10 14 10 3 11 15 14 8 11 8 9 12 10 6 5 8 9 7 8 12
5 8 3 8 7 9 7 8 8 7 9 7 9 10 7 7 8 7 4 10 3 8 7 2 8 11 15 16 12 6 10 9 9 10 14 12 10 1 1 8 8 10 9 11 13
5 4 5 6 8 10 9 8 10 5 9 7 9 1 9 12 6 5 7 8 4 2 8 4 11 13 13 18 14 8 10 11 14 11 14 14 17 15 15 16 11 11 10 10 12
4 1 5 3 3 7 5 8 9 9 10 6 9 12 12 12 12 11 11 11 8 8 6 6 12 13 15 16 17 18 19 20 19 18 18 19 21 18 15 9 9 10 5 10 12
5 4 4 10 6 9 5 10 11 10 2 10 11 11 9 11 11 11 12 9 10 13 8 10 9 10 16 18 18 21 22 21 21 20 21 21 19 8 9 11 12 11 11 11 12
8 9 5 3 8 9 10 10 7 8 3 10 6 7 10 7 6 9 7 8 5 7 8 9 9 11 16 14 15 13 18 19 16 16 15 14 10 13 12 12 12 10 10 10 11
Wind_Direction
9 6 3 359 349 339 332 323 315 310 301 295 287 277 282 284 278 236 238 197 204 208 170 195 212 222 235 254 242 272 257 259 345 47 345 358 337 358 338 301 97 53 38 134 147
7 5 2 358 355 351 342 332 320 313 300 288 269 270 285 285 259 243 226 239 226 188 192 195 208 212 229 238 233 256 293 23 20 333 308 325 321 309 315 344 52 61 94 126 155
4 3 360 360 358 354 342 328 312 298 285 270 255 259 274 280 259 116 182 222 196 183 208 213 246 233 250 242 232 281 298 5 341 22 310 308 289 340 321 305 23 348 109 146 166
2 1 360 0 358 354 343 329 318 304 279 259 244 234 227 241 353 107 195 187 188 186 221 218 237 233 249 239 226 271 282 296 307 319 295 294 331 287 18 22 348 346 325 157 177
0 0 359 360 359 354 349 349 351 351 332 259 211 190 175 213 69 18 156 164 166 197 209 211 225 243 264 292 301 254 285 322 296 300 324 303 50 56 46 356 24 25 42 155 182
358 359 359 358 357 355 358 358 360 5 22 123 156 170 243 236 114 118 136 151 174 199 205 224 245 262 293 293 284 336 302 292 270 115 150 282 105 281 34 347 39 58 77 166 179
355 356 357 356 354 351 356 352 3 23 72 123 150 175 254 73 144 141 146 168 183 211 209 226 257 236 319 251 289 277 264 196 193 82 128 287 155 52 2 8 33 32 62 67 177
353 353 354 354 352 346 350 339 5 40 84 115 186 243 56 131 157 168 185 180 184 220 261 208 244 270 276 314 251 243 226 193 128 281 117 250 101 56 348 51 49 44 78 94 103
352 351 352 352 351 345 347 337 14 34 188 278 241 229 136 157 189 190 195 181 187 200 205 218 246 248 210 237 227 204 248 352 129 144 307 268 43 64 17 60 66 68 59 65 102
350 350 350 351 350 342 348 263 267 247 266 250 266 256 158 199 154 178 194 218 194 166 180 220 227 231 220 235 325 45 315 155 270 137 232 233 97 100 360 82 79 67 73 70 67
348 348 347 349 347 344 333 257 210 196 216 307 143 339 132 136 160 199 186 208 209 220 234 198 233 223 63 13 345 325 288 284 161 77 278 326 316 57 28 41 88 82 82 83 72
346 345 346 346 341 346 315 6 35 337 281 191 222 249 186 213 190 178 184 209 204 233 196 201 234 50 312 291 268 256 265 240 197 120 276 236 247 164 192 83 69 91 90 69 77
345 345 343 343 329 312 18 22 335 318 252 149 191 193 178 202 205 169 197 223 226 228 219 266 69 94 242 201 247 216 303 15 315 309 253 244 252 151 168 156 124 104 92 84 68
342 342 342 338 288 346 95 344 326 299 264 144 178 161 183 224 212 158 208 242 219 283 199 251 100 257 254 279 304 306 69 294 284 288 293 177 281 182 161 158 148 95 44 73 62
337 339 336 329 307 319 332 326 314 237 266 151 132 136 164 215 128 190 196 216 259 180 244 117 192 215 253 31 322 326 335 297 286 278 275 258 236 101 158 184 150 105 57 50 48
332 336 331 327 253 312 319 313 259 233 232 151 147 184 185 210 190 141 190 235 303 230 234 326 349 260 336 217 272 312 278 262 248 253 246 228 260 165 164 185 155 107 72 35 37
328 330 316 291 322 319 317 262 238 251 138 147 188 182 201 179 177 190 198 202 221 212 215 179 210 138 260 245 195 247 294 290 240 214 268 100 244 286 94 91 54 69 14 11 2
325 321 294 254 288 301 295 257 257 326 151 45 245 204 224 173 220 204 226 226 218 280 283 236 182 184 158 291 336 307 317 292 300 299 320 151 240 89 65 118 137 236 11 311 11
328 307 251 219 272 285 269 240 242 305 27 251 186 235 212 188 269 214 225 235 217 209 266 309 224 133 172 229 278 77 259 17 298 259 250 260 102 168 156 190 191 303 322 346 352
326 288 253 207 264 261 253 258 308 323 306 259 255 213 236 194 199 216 198 229 202 265 271 326 280 195 149 240 213 273 338 274 226 287 282 294 295 284 161 196 28 334 328 322 346
286 263 116 230 246 241 244 260 228 161 279 252 255 268 252 265 226 252 222 125 241 182 276 284 223 262 134 224 250 188 234 208 301 299 296 295 60 84 27 342 349 307 316 339 326
289 252 109 241 240 229 257 226 3 255 213 257 268 289 262 243 250 253 252 240 101 285 245 147 283 260 243 115 305 273 279 287 279 294 279 302 285 43 37 328 296 296 327 318 335
294 287 206 239 251 229 205 258 243 239 237 231 239 241 241 260 253 278 248 78 169 248 4 310 244 260 240 239 182 242 270 239 263 276 266 275 277 351 224 248 349 354 356 353 321
279 269 179 214 270 283 301 231 208 213 277 267 275 254 244 245 209 249 244 145 225 310 38 316 272 271 284 316 318 272 234 251 268 271 282 279 296 301 318 313 343 348 343 321 307
245 12 6 272 180 300 290 297 242 209 221 222 233 243 232 239 235 220 230 152 197 132 238 251 269 279 283 290 289 286 282 279 271 267 269 290 295 304 313 352 321 294 325 303 310
309 339 1 283 278 270 208 239 248 255 263 229 238 260 239 256 248 246 244 236 235 165 232 237 262 280 279 276 272 272 272 271 269 269 273 278 284 322 358 329 331 330 314 303 313
8 278 266 291 243 245 252 232 238 276 251 278 324 308 238 304 319 334 312 302 279 278 257 255 276 280 276 286 281 277 265 261 256 263 279 278 321 347 345 335 329 316 307 312 320